This is the latest recevied weather packets stored in our database for station/object PA3CPS. If no packets are shown the sender has not sent any weather packets the latest 10 day(s).
| Time | Temp. | Humidity | Pressure | Rain* | Wind** | Luminosity | Snow |
|---|---|---|---|---|---|---|---|
| 1778057911 | 10.56° C | 76% | 1007.9 hPa | 0 mm | - | 181 W/m² | - |
| 1778057611 | 10.56° C | 77% | 1007.7 hPa | 0 mm | - | 186 W/m² | - |
| 1778057311 | 10.56° C | 77% | 1007.6 hPa | 0 mm | - | 174 W/m² | - |
| 1778057012 | 10.56° C | 76% | 1007.7 hPa | 0 mm | - | 151 W/m² | - |
| 1778056711 | 10.56° C | 77% | 1007.6 hPa | 0 mm | - | 146 W/m² | - |
| 1778056412 | 10.56° C | 77% | 1007.7 hPa | 0 mm | - | 151 W/m² | - |
| 1778056112 | 10.56° C | 77% | 1007.6 hPa | 0 mm | - | 146 W/m² | - |
| 1778055812 | 10.56° C | 78% | 1007.7 hPa | 0 mm | - | 135 W/m² | - |
| 1778055512 | 10.56° C | 78% | 1007.7 hPa | 0 mm | - | 125 W/m² | - |
| 1778055211 | 10.56° C | 79% | 1007.6 hPa | 0 mm | - | 109 W/m² | - |
| 1778054911 | 10.56° C | 79% | 1007.6 hPa | 0 mm | - | 100 W/m² | - |
| 1778054612 | 10.56° C | 79% | 1007.6 hPa | 0 mm | - | 98 W/m² | - |
| 1778054314 | 10.56° C | 78% | 1007.6 hPa | 0 mm | - | 97 W/m² | - |
| 1778054012 | 10.56° C | 79% | 1007.6 hPa | 0 mm | - | 95 W/m² | - |
| 1778053712 | 10.56° C | 79% | 1007.6 hPa | 0 mm | - | 97 W/m² | - |
| 1778053411 | 10.56° C | 77% | 1007.5 hPa | 0 mm | - | 100 W/m² | - |
| 1778053112 | 10.56° C | 75% | 1007.5 hPa | 0 mm | - | 97 W/m² | - |
| 1778052811 | 10° C | 74% | 1007.5 hPa | 0 mm | - | 97 W/m² | - |
| 1778052511 | 10° C | 73% | 1007.5 hPa | 0 mm | - | 93 W/m² | - |
| 1778052211 | 10° C | 74% | 1007.5 hPa | 0 mm | - | 98 W/m² | - |
| 1778051912 | 10° C | 75% | 1007.4 hPa | 0 mm | - | 114 W/m² | - |
| 1778051612 | 10° C | 76% | 1007.4 hPa | 0 mm | - | 125 W/m² | - |
| 1778051310 | 10° C | 80% | 1007.5 hPa | 0 mm | - | 118 W/m² | - |
| 1778051009 | 10° C | 82% | 1007.5 hPa | 0 mm | - | 111 W/m² | - |
| 1778050708 | 10° C | 83% | 1007.3 hPa | 0 mm | - | 107 W/m² | - |
* Rain latest hour (hover to see other rain measurements)
** Current wind speed in m/s (hover to see current wind gust speed)